This demonstration page uses our WeatherBlox Daily Observations layout. Learn more.

Hourly Observations for September 3, 2020

Temp ( °F °C ) Dew Point ( °F °C ) Humidity (%) Winds ( mph kmh ) Pressure ( in mb ) Visibility ( mi km ) Precip ( " mm )
12:15 am 00:15 Clear 70 21 68 20 94 94 W 6 9 29.87 1012 10 16.0934 0 0
12:35 am 00:35 Clear 70 21 68 20 94 94 W 5 7 29.87 1012 10 16.0934 0 0
12:55 am 00:55 Clear 68 20 68 20 100 100 Calm 29.87 1012 10 16.0934 0 0
1:35 am 01:35 Clear 68 20 68 20 100 100 Calm 29.88 1012 10 16.0934 0 0
1:55 am 01:55 Clear 66 19 66 19 100 100 Calm 29.88 1012 7 11.26538 0 0
2:15 am 02:15 Clear 66 19 66 19 100 100 SSW 3 6 29.88 1012 10 16.0934 0 0
2:35 am 02:35 Clear 64 18 64 18 100 100 WSW 3 6 29.88 1012 10 16.0934 0 0
2:55 am 02:55 Clear 64 18 64 18 100 100 NW 3 6 29.87 1012 10 16.0934 0 0
3:15 am 03:15 Clear 64 18 64 18 100 100 Calm 29.87 1012 10 16.0934 0 0
3:35 am 03:35 Clear 64 18 64 18 100 100 Calm 29.87 1012 10 16.0934 0 0
3:55 am 03:55 Clear 64 18 64 18 100 100 Calm 29.87 1012 10 16.0934 0 0
4:15 am 04:15 Clear 64 18 64 18 100 100 Calm 29.87 1012 5 8.0467 0 0
4:35 am 04:35 Clear 63 17 63 17 100 100 Calm 29.88 1012 10 16.0934 0 0
4:55 am 04:55 Clear 63 17 63 17 100 100 Calm 29.88 1012 10 16.0934 0 0
5:15 am 05:15 Clear 63 17 63 17 100 100 WNW 3 6 29.88 1012 10 16.0934 0 0
5:35 am 05:35 Clear 63 17 63 17 100 100 WSW 3 6 29.89 1012 10 16.0934 0 0
5:55 am 05:55 Clear 63 17 63 17 100 100 Calm 29.88 1012 10 16.0934 0 0
6:15 am 06:15 Clear 63 17 63 17 100 100 Calm 29.88 1012 10 16.0934 0 0
6:35 am 06:35 Clear 63 17 63 17 100 100 Calm 29.89 1012 7 11.26538 0 0
6:55 am 06:55 Sunny 63 17 63 17 100 100 Calm 29.9 1012 10 16.0934 0 0
7:15 am 07:15 Sunny 63 17 63 17 100 100 Calm 29.9 1012 10 16.0934 0 0
7:35 am 07:35 Sunny 63 17 63 17 100 100 Calm 29.89 1012 10 16.0934 0 0
7:55 am 07:55 Sunny 63 17 63 17 100 100 Calm 29.89 1012 10 16.0934 0 0
8:15 am 08:15 Partly Cloudy 64 18 64 18 100 100 Calm 29.88 1012 10 16.0934 0 0
8:35 am 08:35 Partly Cloudy 66 19 64 18 94 94 E 3 6 29.88 1012 10 16.0934 0 0
8:55 am 08:55 Sunny 66 19 64 18 94 94 Calm 29.88 1012 10 16.0934 0 0
9:35 am 09:35 Partly Cloudy 72 22 68 20 88 88 Calm 29.89 1012 10 16.0934 0 0
9:55 am 09:55 Partly Cloudy 72 22 68 20 88 88 Calm 29.88 1012 10 16.0934 0 0
10:15 am 10:15 Mostly Cloudy 75 24 66 19 74 74 WSW 3 6 29.88 1012 10 16.0934 0 0
10:35 am 10:35 Cloudy 73 23 68 20 83 83 Calm 29.89 1012 10 16.0934 0 0
10:55 am 10:55 Cloudy 73 23 70 21 89 89 Calm 29.88 1012 10 16.0934 0 0
11:15 am 11:15 Cloudy 77 25 68 20 74 74 Calm 29.87 1012 10 16.0934 0 0
11:35 am 11:35 Cloudy 79 26 68 20 70 70 Calm 29.86 1011 10 16.0934 0 0
11:55 am 11:55 Partly Cloudy 79 26 68 20 70 70 SSE 5 7 29.84 1011 10 16.0934 0 0
12:15 pm 12:15 Sunny 81 27 68 20 66 66 S 3 6 29.84 1011 10 16.0934 0 0
12:35 pm 12:35 Partly Cloudy 81 27 68 20 66 66 S 5 7 29.83 1010 10 16.0934 0 0
12:55 pm 12:55 Partly Cloudy 82 28 68 20 62 62 SSE 6 9 29.82 1010 10 16.0934 0 0
1:15 pm 13:15 Partly Cloudy 86 30 70 21 59 59 S 10 17 29.81 1009 10 16.0934 0 0
1:35 pm 13:35 Partly Cloudy 86 30 70 21 59 59 S 8 13 29.81 1009 10 16.0934 0 0
1:55 pm 13:55 Partly Cloudy 86 30 72 22 62 62 S 13 20 29.8 1009 10 16.0934 0 0
2:15 pm 14:15 Partly Cloudy 88 31 72 22 59 59 SW 8 13 29.79 1009 10 16.0934 0 0
2:35 pm 14:35 Mostly Cloudy 88 31 73 23 62 62 S 9 15 29.78 1008 10 16.0934 0 0
2:55 pm 14:55 Partly Cloudy 88 31 72 22 59 59 S 8 13 29.77 1008 10 16.0934 0 0
3:15 pm 15:15 Partly Cloudy 88 31 73 23 62 62 SSW 8 13 29.75 1007 10 16.0934 0 0
3:35 pm 15:35 Partly Cloudy 88 31 73 23 62 62 S 15 24 29.73 1007 10 16.0934 0 0
3:55 pm 15:55 Mostly Cloudy 88 31 73 23 62 62 S 8 13 29.71 1006 10 16.0934 0 0
4:15 pm 16:15 Cloudy with Thunderstorms 86 30 73 23 66 66 NW 14 22 29.72 1006 10 16.0934 0 0
4:35 pm 16:35 Cloudy with Thunderstorms 77 25 77 25 100 100 NW 13 20 29.75 1008 2.5 4.02335 0 0
4:55 pm 16:55 Cloudy with Nearby Thunderstorms 77 25 73 23 89 89 NNW 10 17 29.77 1008 5 8.0467 0 0
5:15 pm 17:15 Mostly Cloudy 73 23 73 23 100 100 N 9 15 29.75 1007 10 16.0934 0 0
5:35 pm 17:35 Mostly Cloudy 77 25 73 23 89 89 NNE 6 9 29.74 1007 10 16.0934 0 0
5:55 pm 17:55 Cloudy 75 24 73 23 94 94 NE 5 7 29.76 1008 10 16.0934 0 0
6:15 pm 18:15 Cloudy 73 23 73 23 100 100 Calm 29.75 1007 10 16.0934 0 0
6:35 pm 18:35 Cloudy with Nearby Thunderstorms 73 23 73 23 100 100 ENE 3 6 29.74 1007 10 16.0934 0 0
6:55 pm 18:55 Mostly Cloudy with Nearby Thunderstorms 73 23 73 23 100 100 ENE 5 7 29.74 1007 7 11.26538 0 0
7:15 pm 19:15 Cloudy 72 22 72 22 100 100 NE 3 6 29.76 1008 10 16.0934 0 0
7:35 pm 19:35 Mostly Cloudy 72 22 72 22 100 100 SSE 6 9 29.76 1008 10 16.0934 0 0
7:55 pm 19:55 Mostly Cloudy 72 22 72 22 100 100 ESE 3 6 29.76 1008 10 16.0934 0 0
8:15 pm 20:15 Cloudy 72 22 72 22 100 100 Calm 29.77 1008 10 16.0934 0 0
8:35 pm 20:35 Cloudy 72 22 72 22 100 100 NE 5 7 29.77 1008 5 8.0467 0 0
8:55 pm 20:55 Partly Cloudy 72 22 72 22 100 100 Calm 29.78 1008 10 16.0934 0 0
9:15 pm 21:15 Mostly Cloudy 72 22 72 22 100 100 Calm 29.79 1009 10 16.0934 0 0
9:35 pm 21:35 Cloudy 70 21 70 21 100 100 NE 3 6 29.79 1009 10 16.0934 0 0
9:55 pm 21:55 Cloudy 70 21 70 21 100 100 NNW 3 6 29.8 1009 10 16.0934 0 0
10:15 pm 22:15 Cloudy 70 21 70 21 100 100 Calm 29.8 1009 7 11.26538 0 0
10:35 pm 22:35 Cloudy 70 21 70 21 100 100 W 3 6 29.81 1009 10 16.0934 0 0
10:55 pm 22:55 Mostly Cloudy 70 21 70 21 100 100 Calm 29.81 1009 10 16.0934 0 0
11:15 pm 23:15 Clear 70 21 70 21 100 100 Calm 29.81 1009 10 16.0934 0 0
11:35 pm 23:35 Clear 68 20 68 20 100 100 W 3 6 29.81 1010 10 16.0934 0 0
11:55 pm 23:55 Clear 68 20 68 20 100 100 NW 6 9 29.81 1010 10 16.0934 0 0

Powered by AerisWeather